Location: Enid
(36.3960°N, 97.8780°W)
Time: 22:30:47
(UTC-06:00)

Hubble Space Telescope - Visible Passes

Search period start: 21 February 2017 00:00
Search period end: 03 March 2017 00:00
Orbit: 538 x 542 km, 28.5° (Epoch: 21 February)

Date Brightness Start Highest point End Pass type
(mag) Time Alt. Az. Time Alt. Az. Time Alt. Az.
23 Feb 3.2 20:15:00 10° SSW 20:15:59 13° S 20:15:59 13° S visible
24 Feb 2.7 20:04:35 10° SSW 20:06:47 18° S 20:06:47 18° S visible
25 Feb 2.4 19:54:17 10° SW 19:57:24 21° SSE 19:57:32 21° SSE visible
26 Feb 2.3 19:44:04 10° SW 19:47:20 23° S 19:48:14 21° SSE visible
27 Feb 2.3 19:33:54 10° SW 19:37:17 25° S 19:38:56 19° SE visible
28 Feb 2.2 19:23:47 10° SW 19:27:14 26° S 19:29:36 16° SE visible
28 Feb 3.7 21:04:40 10° WSW 21:04:58 11° WSW 21:04:58 11° WSW visible
01 Mar 2.2 19:13:42 10° SW 19:17:12 27° S 19:20:16 12° ESE visible
01 Mar 3.4 20:54:45 10° WSW 20:55:39 14° SW 20:55:39 14° SW visible
02 Mar 2.3 19:03:39 10° WSW 19:07:09 27° S 19:10:40 10° ESE visible
02 Mar 3.2 20:44:53 10° WSW 20:46:19 16° SW 20:46:19 16° SW visible
